Date,TemperatureHighF,TemperatureAvgF,TemperatureLowF,DewpointHighF,DewpointAvgF,DewpointLowF,HumidityHigh,HumidityAvg,HumidityLow,PressureMaxIn,PressureMinIn,WindSpeedMaxMPH,WindSpeedAvgMPH,GustSpeedMaxMPH,PrecipitationSumIn
2013-1-1,33.3,28.1,18.5,29.0,20.4,-37.5,87,73,3,30.18,30.00,6,1,60,0.00
2013-1-2,27.0,19.1,13.1,14.0,8.4,6.0,76,63,46,30.28,30.14,6,1,8,0.00
2013-1-3,32.4,22.7,12.7,20.2,12.4,4.8,72,65,34,30.29,30.18,8,2,12,0.00
2013-1-4,33.4,28.4,23.2,20.2,16.5,12.5,70,61,53,30.34,30.24,10,4,15,0.00
2013-1-5,39.9,30.1,19.2,26.4,19.7,10.2,78,65,55,30.40,30.14,8,2,13,0.14
2013-1-6,38.1,33.2,26.8,30.2,25.1,18.8,82,72,63,30.32,29.99,8,3,14,0.04
2013-1-7,37.2,31.2,26.8,24.6,22.3,19.8,80,70,56,30.48,30.27,9,2,12,0.00
2013-1-8,46.2,35.2,24.3,31.1,25.2,17.4,75,67,55,30.35,30.24,6,2,8,0.00
2013-1-9,48.6,40.5,33.3,39.0,31.9,25.2,86,72,63,30.53,30.18,9,2,14,0.04
2013-1-10,43.2,35.9,27.9,30.7,27.7,22.2,85,72,55,30.58,30.16,5,1,9,0.00
2013-1-11,61.3,52.2,42.8,53.4,45.1,30.7,88,77,62,30.16,29.86,12,3,19,0.08
2013-1-12,64.6,58.0,51.4,59.4,53.4,45.5,92,85,74,30.02,29.81,11,3,15,0.00
2013-1-13,64.9,58.0,38.3,59.4,53.0,35.6,90,84,73,30.08,29.73,14,4,18,0.12
2013-1-14,38.3,29.1,25.0,35.6,21.5,17.0,90,73,66,30.46,30.07,8,1,11,0.01
2013-1-15,32.9,29.1,24.3,22.0,19.6,16.8,77,67,59,30.42,30.07,9,2,12,0.00
2013-1-16,35.8,32.7,30.6,26.4,24.0,21.8,79,70,59,30.10,29.93,8,2,11,0.00
2013-1-17,37.6,33.6,24.4,28.3,23.8,10.6,79,67,56,30.37,30.06,12,2,17,0.00
2013-1-18,35.8,27.7,17.8,22.6,14.1,6.1,71,57,44,30.53,30.21,12,3,18,0.00
2013-1-19,53.6,43.5,32.5,28.1,24.2,20.1,66,47,31,30.21,29.84,12,5,18,0.00
2013-1-20,45.3,31.9,23.9,33.0,14.7,7.5,63,49,34,30.23,29.83,14,4,20,0.00
2013-1-21,23.9,19.0,9.0,12.5,5.0,-8.3,69,54,35,30.22,30.04,15,4,19,0.00
2013-1-22,15.4,10.2,5.5,10.2,-7.6,-9.8,92,42,32,30.38,30.21,9,4,13,0.00
2013-1-23,20.7,15.0,8.8,8.4,-1.8,-7.4,67,47,32,30.36,30.10,8,2,10,0.00
2013-1-24,21.2,17.2,12.2,8.9,3.9,0.1,67,56,45,30.60,30.10,10,3,14,0.00
2013-1-25,23.4,19.4,15.8,16.1,7.8,-1.1,75,61,42,30.51,30.03,8,2,11,0.00
2013-1-26,29.3,25.0,17.4,18.9,14.4,1.6,74,64,54,30.53,30.10,7,2,10,0.00
2013-1-27,35.2,26.2,15.1,27.3,14.1,5.1,82,60,50,30.52,30.23,8,2,11,0.06
2013-1-28,51.3,43.7,32.2,47.7,40.7,27.3,94,89,82,30.23,29.97,11,3,16,0.10
2013-1-29,66.4,57.5,49.6,54.8,51.1,47.5,94,80,64,30.03,29.61,14,4,17,0.00
2013-1-30,64.6,55.4,34.3,54.6,48.5,26.3,89,78,66,29.61,29.21,15,6,24,0.50
2013-1-31,34.5,25.7,17.8,26.4,15.7,7.5,77,66,48,29.97,29.46,16,6,61,26.46
2013-2-1,17.8,12.4,7.2,9.5,-0.9,-5.0,70,54,46,30.40,29.97,11,4,19,0.08
2013-2-2,56.7,20.1,10.2,19.9,11.4,-2.1,77,69,56,30.37,29.33,10,3,14,0.00
2013-2-3,25.5,22.3,19.8,18.7,14.6,9.5,76,72,59,30.00,29.92,8,2,11,0.00
2013-2-4,29.1,27.2,23.2,25.5,20.2,12.9,86,75,54,30.00,29.84,10,2,13,0.00
2013-2-5,32.4,28.7,25.0,26.3,21.8,19.0,86,75,64,29.98,29.85,5,2,7,0.00
2013-2-6,37.8,31.2,25.0,26.5,19.4,12.6,78,62,44,30.32,29.98,8,2,11,0.06
2013-2-7,50.2,38.1,25.3,31.6,25.1,14.5,71,60,46,30.28,29.81,8,2,11,0.00
2013-2-8,44.6,32.8,25.9,36.0,24.2,14.2,88,71,58,30.32,29.77,13,5,21,0.10
2013-2-9,39.0,28.3,18.5,19.9,15.1,-38.4,78,59,3,30.46,30.29,8,1,7,0.01
2013-2-10,50.4,39.6,27.9,39.9,23.3,13.4,77,53,35,30.29,29.80,18,4,23,0.00
2013-2-11,53.2,45.2,37.4,46.2,34.2,24.7,89,66,45,30.00,29.71,17,6,26,0.00
2013-2-12,46.2,37.5,32.0,26.3,23.4,21.0,66,57,44,30.13,29.93,11,3,18,0.00
2013-2-13,33.3,30.4,27.3,24.9,23.0,19.8,80,74,65,29.93,29.75,6,2,8,0.00
2013-2-14,46.4,35.1,26.6,37.2,28.7,20.7,87,78,64,29.97,29.79,11,3,15,0.00
2013-2-15,35.1,30.6,26.8,29.8,24.3,19.4,82,77,70,30.14,29.96,8,1,10,0.06
2013-2-16,29.5,22.9,16.3,20.0,12.5,0.3,79,64,48,30.14,29.99,9,2,14,0.00
2013-2-17,25.9,18.9,14.4,9.2,3.9,-1.1,64,52,38,30.29,30.09,7,2,10,0.00
2013-2-18,50.9,38.0,17.8,32.6,19.6,3.2,54,47,40,30.29,29.73,15,6,24,0.01
2013-2-19,50.4,31.8,20.7,38.1,23.3,9.5,86,71,48,30.08,29.62,16,6,21,0.05
2013-2-20,22.6,19.9,15.8,12.6,8.3,4.1,71,60,50,30.31,30.08,10,4,14,0.00
2013-2-21,28.6,23.5,20.3,15.5,12.3,9.2,72,62,54,30.37,30.21,8,3,11,0.00
2013-2-22,41.7,33.3,25.5,37.3,26.9,13.2,92,77,59,30.20,29.90,9,3,14,0.04
2013-2-23,40.5,35.4,29.8,29.9,25.8,21.1,80,68,54,29.98,29.89,7,2,9,0.00
2013-2-24,34.3,30.5,27.0,21.6,18.7,16.0,71,62,51,30.17,29.94,7,2,11,0.00
2013-2-25,46.6,35.2,23.2,25.5,21.2,15.7,78,57,40,30.22,30.00,9,2,12,0.00
2013-2-26,43.3,38.3,33.1,40.6,31.1,20.6,91,76,52,30.00,29.45,8,4,12,0.37
2013-2-27,43.5,38.3,33.6,40.8,34.0,28.3,90,84,77,29.69,29.48,10,4,16,0.05
2013-2-28,37.4,34.3,31.6,33.0,29.0,26.4,86,81,74,29.91,29.64,8,2,12,0.01
2013-3-1,33.6,31.0,27.1,26.7,22.7,16.0,78,71,60,30.05,29.90,8,3,14,0.01
2013-3-2,29.5,26.8,25.5,20.2,17.8,15.9,73,68,63,30.08,30.00,8,3,11,0.00
2013-3-3,30.7,26.2,23.5,17.2,14.1,11.3,73,60,50,30.09,30.02,7,2,10,0.00
2013-3-4,41.2,30.4,18.3,17.8,13.9,9.6,74,52,32,30.18,30.05,5,1,8,0.00
2013-3-5,39.6,35.1,30.9,29.2,24.5,16.9,86,66,48,30.10,29.56,9,3,14,0.04
2013-3-6,38.7,34.4,31.6,32.1,28.7,25.2,88,80,70,30.22,29.55,7,2,11,0.43
2013-3-7,42.1,35.6,31.6,30.4,26.0,24.5,75,68,58,30.37,30.19,8,2,10,0.01
2013-3-8,45.7,37.1,28.8,27.9,25.1,21.1,78,62,46,30.48,30.35,8,2,11,0.00
2013-3-9,57.0,43.0,27.0,31.7,26.7,19.2,78,55,36,30.40,30.04,10,2,13,0.00
2013-3-10,70.5,59.4,49.1,39.4,33.5,27.0,56,38,26,30.05,29.82,13,4,16,0.00
2013-3-11,63.0,52.2,41.5,52.1,44.3,35.1,94,77,36,29.85,29.55,18,5,24,0.35
2013-3-12,41.4,36.5,31.3,35.5,30.1,26.4,88,78,65,30.01,29.80,12,3,15,0.01
2013-3-13,33.8,30.3,27.1,30.5,22.6,15.5,89,73,59,30.28,29.96,10,4,17,0.00
2013-3-14,41.9,31.7,23.2,23.9,18.2,14.0,70,58,44,30.32,30.15,11,2,14,0.00
2013-3-15,50.4,39.3,29.1,41.8,30.5,-35.5,95,71,59,30.16,29.84,8,2,119,0.11
2013-3-16,50.9,41.7,32.0,46.9,39.0,27.4,98,90,81,30.04,29.59,9,3,14,0.04
2013-3-17,37.6,34.1,32.0,27.8,25.2,22.0,83,70,58,30.19,30.03,10,4,14,0.00
2013-3-18,50.4,40.4,32.4,49.6,37.5,24.0,98,89,69,30.08,29.57,12,4,17,0.51
2013-3-19,39.6,34.7,29.1,36.1,21.8,14.6,88,60,40,30.04,29.76,17,6,23,0.01
2013-3-20,37.2,30.6,23.0,17.7,13.8,7.6,58,49,41,30.03,29.92,11,4,17,0.00
2013-3-21,34.5,24.5,18.7,19.2,11.7,6.9,68,58,44,30.00,29.80,9,3,14,0.34
2013-3-22,42.8,31.4,21.2,21.8,15.7,12.5,69,53,37,30.05,29.96,8,2,12,0.00
2013-3-23,48.2,35.8,24.3,25.9,20.1,14.3,71,54,34,30.08,29.96,10,2,13,0.00
2013-3-24,37.6,34.2,30.6,27.3,22.3,18.3,85,62,48,29.97,29.43,11,5,17,0.00
2013-3-25,35.8,32.6,30.4,30.9,29.0,27.3,89,86,80,29.89,29.38,8,2,15,0.10
2013-3-26,43.2,36.1,32.2,32.1,27.9,21.3,88,73,46,30.17,29.88,10,3,16,0.10
2013-3-27,45.0,37.9,33.4,29.6,25.7,22.3,78,62,41,30.26,30.15,11,4,15,0.00
2013-3-28,50.4,39.9,29.5,29.3,24.5,20.6,71,55,40,30.31,30.24,9,2,13,28.98
2013-3-29,54.0,41.9,28.4,30.2,25.9,21.5,77,55,35,30.32,30.18,9,2,14,0.00
2013-3-30,57.7,45.1,29.8,32.3,26.3,23.4,79,51,29,30.26,29.95,8,1,12,0.00
2013-3-31,56.1,49.1,32.4,47.2,38.4,21.2,94,68,40,30.29,29.71,10,2,14,0.02
2013-4-1,49.1,40.4,32.4,41.2,23.0,11.0,78,51,32,30.12,29.73,11,4,17,0.00
2013-4-2,43.9,34.0,23.5,19.0,14.2,9.6,60,44,30,30.26,30.12,9,2,14,0.00
2013-4-3,45.9,35.6,25.3,16.4,12.3,8.5,52,39,27,30.42,30.26,12,3,16,0.00
2013-4-4,53.6,40.5,28.4,22.2,15.3,10.4,52,37,24,30.39,29.97,8,2,10,29.00
2013-4-5,56.8,45.0,32.4,34.6,23.8,18.5,59,44,31,30.17,29.96,11,3,15,0.00
2013-4-6,60.3,47.0,33.4,24.9,19.1,7.9,60,34,25,30.28,29.90,10,4,16,0.00
2013-4-7,74.3,63.7,54.9,46.9,39.1,21.5,54,41,27,29.98,29.81,12,4,18,0.00
2013-4-8,72.9,63.7,54.1,55.9,50.7,41.2,86,64,49,29.99,29.83,12,3,20,0.00
2013-4-9,82.6,69.3,55.6,59.5,55.6,52.3,90,64,41,30.06,29.85,13,3,18,0.00
2013-4-10,82.9,70.6,60.1,65.8,60.5,56.6,97,72,48,29.93,29.74,16,4,26,0.10
2013-4-11,67.5,60.3,51.6,63.7,41.4,-99.9,102,96,86,29.88,29.52,11,2,16,0.46
2013-4-12,59.4,48.8,42.6,55.0,2.0,-99.9,102,87,65,29.90,29.46,10,3,15,0.14
2013-4-13,51.6,44.4,37.4,39.2,35.7,30.4,80,72,58,30.05,29.89,10,3,14,0.00
2013-4-14,66.6,51.6,37.0,43.4,37.6,30.4,89,62,39,30.12,29.90,8,2,11,0.00
2013-4-15,70.2,63.4,55.4,54.8,49.2,39.3,68,60,45,30.00,29.89,12,4,16,0.00
2013-4-16,78.3,64.2,56.3,64.7,49.3,-99.9,102,80,56,30.18,29.95,14,4,20,0.16
2013-4-17,68.5,60.2,53.6,61.1,39.2,-99.9,102,90,76,30.24,29.98,9,3,11,0.07
2013-4-18,86.0,72.8,61.5,65.3,59.3,54.7,93,66,38,30.00,29.62,16,5,30,0.00
2013-4-19,73.8,53.1,40.6,61.7,43.3,31.1,97,71,51,29.94,29.39,14,6,21,0.17
2013-4-20,48.0,40.5,35.6,33.6,29.0,25.0,89,64,44,30.42,29.94,13,4,17,0.00
2013-4-21,37.8,34.5,31.8,27.3,24.4,22.5,70,66,62,30.55,30.42,4,2,8,0.00
2013-4-22,69.4,62.2,44.4,41.2,38.4,30.1,59,42,30,30.35,30.13,9,3,14,0.01
2013-4-23,72.7,61.9,49.6,51.6,40.4,30.3,62,46,35,30.16,29.85,11,3,18,0.01
2013-4-24,64.6,51.7,36.0,57.0,46.5,33.6,100,83,61,30.22,29.74,10,3,18,0.47
2013-4-25,56.5,44.8,33.8,41.0,30.9,-99.9,102,71,45,30.38,30.19,9,2,14,0.00
2013-4-26,61.9,49.1,33.8,36.6,32.1,28.2,89,55,30,30.46,30.33,7,1,9,0.00
2013-4-27,71.8,58.6,42.8,48.4,37.6,-27.6,75,49,24,30.37,30.07,8,2,14,0.00
2013-4-28,64.4,58.9,54.3,60.5,35.4,-99.9,102,89,63,30.08,29.80,8,3,12,0.36
2013-4-29,65.8,60.4,56.3,59.3,55.1,-99.9,101,88,69,29.97,29.85,5,1,7,0.03
2013-4-30,76.8,64.8,51.3,57.2,53.9,51.0,99,71,45,30.06,29.97,8,2,11,0.00
2013-5-1,81.9,70.7,59.4,59.7,54.6,51.4,80,59,37,30.20,30.05,7,2,11,0.00
2013-5-2,76.3,69.2,60.6,55.4,52.5,48.8,69,56,47,30.25,30.10,8,2,13,0.00
2013-5-3,78.1,69.7,60.6,55.3,45.0,29.3,73,46,18,30.14,29.98,11,4,17,0.00
2013-5-4,72.5,65.0,56.8,46.6,42.9,37.9,59,45,36,29.97,29.84,10,3,17,0.00
2013-5-5,73.2,64.9,53.8,47.0,39.3,25.9,71,41,21,29.92,29.78,7,2,11,0.00
2013-5-6,68.0,62.5,55.9,58.8,47.6,26.4,88,61,23,29.89,29.82,5,1,8,0.00
2013-5-7,70.9,63.0,56.3,61.4,56.4,53.4,92,80,59,29.86,29.80,10,2,17,0.23
2013-5-8,60.8,60.0,59.2,54.1,53.5,52.8,80,79,77,29.85,29.81,3,2,4,0.00
2013-5-9,81.1,75.6,68.5,59.2,52.7,42.8,67,46,26,29.87,29.79,5,1,8,0.01
2013-5-10,72.5,64.7,60.6,63.9,61.1,55.8,99,89,65,29.85,29.67,14,1,18,1.15
2013-5-11,62.4,53.6,46.0,61.8,50.2,40.5,99,89,74,29.86,29.69,6,2,11,0.01
2013-5-12,52.9,46.1,37.4,40.5,33.7,28.4,97,65,40,30.02,29.85,9,2,14,0.00
2013-5-13,57.6,47.3,36.9,35.5,31.5,25.7,87,57,31,30.07,29.99,6,1,9,0.00
2013-5-14,77.5,60.1,43.9,57.0,42.8,32.5,68,54,34,30.04,29.65,13,2,18,0.00
2013-5-15,88.2,76.8,65.3,61.7,58.4,55.1,79,55,33,29.70,29.60,9,2,14,0.00
2013-5-16,78.8,72.1,65.8,63.6,58.2,48.5,92,64,39,29.86,29.66,6,1,11,0.01
2013-5-17,81.0,69.3,60.1,64.7,60.4,52.8,99,77,39,29.98,29.86,7,1,11,0.00
2013-5-18,80.2,70.1,62.4,64.3,59.5,53.7,85,70,51,29.98,29.84,4,1,6,0.07
2013-5-19,80.2,73.5,64.6,67.1,64.0,61.1,91,73,56,29.91,29.78,9,2,11,0.00
2013-5-20,87.1,76.7,68.4,71.2,67.5,64.9,96,75,49,29.89,29.73,8,2,13,0.01
2013-5-21,87.8,78.4,70.9,68.4,64.3,59.4,88,64,40,29.79,29.65,9,2,16,0.00
2013-5-22,81.9,73.8,65.1,65.2,62.2,59.2,94,69,49,29.74,29.58,9,2,15,0.01
2013-5-23,75.0,63.4,49.5,65.1,58.2,46.1,97,85,53,29.96,29.66,7,2,12,0.14
2013-5-24,59.2,50.8,43.3,46.4,39.3,34.6,90,66,44,30.22,29.95,10,3,16,0.00
2013-5-25,64.0,53.2,40.3,44.2,39.9,35.6,95,64,40,30.27,30.11,5,1,9,0.00
2013-5-26,68.7,57.2,43.7,42.4,35.4,26.8,86,48,24,30.21,30.07,5,1,8,0.00
2013-5-27,69.3,60.0,52.7,53.3,45.3,35.6,84,60,45,30.14,29.87,6,2,11,0.02
2013-5-28,84.6,74.5,63.9,67.3,60.9,53.3,95,64,45,29.90,29.77,7,2,12,0.01
2013-5-29,88.5,78.7,69.8,63.1,59.7,52.6,69,54,31,29.94,29.84,8,2,13,0.00
2013-5-30,88.5,79.6,70.3,66.6,63.5,60.5,80,60,42,30.03,29.86,8,2,14,0.00
2013-5-31,87.8,75.8,68.4,71.2,64.9,61.5,95,71,45,29.95,29.79,11,2,16,0.13
2013-6-1,83.1,75.7,68.2,69.0,67.0,65.1,96,76,56,29.87,29.62,12,2,21,0.01
2013-6-2,76.1,71.5,66.2,68.6,61.6,57.4,93,72,54,29.80,29.65,5,2,10,0.00
2013-6-3,66.9,61.6,57.0,59.0,53.0,47.5,87,74,55,29.97,29.79,5,2,8,0.00
2013-6-4,74.8,63.1,47.7,49.7,44.6,40.3,79,53,34,30.06,29.94,7,2,9,0.00
2013-6-5,80.8,69.8,56.8,58.6,50.8,44.3,69,52,36,30.01,29.74,4,1,9,0.00
2013-6-6,71.4,64.4,59.2,65.5,61.7,56.1,98,91,61,29.77,29.65,4,1,7,0.13
2013-6-7,66.0,60.5,57.0,58.3,55.9,53.9,97,86,70,29.79,29.70,7,2,10,0.00
2013-6-8,76.1,65.2,54.9,57.9,54.8,51.3,98,72,46,29.94,29.78,4,0,6,0.00
2013-6-9,83.3,74.4,67.5,67.2,60.2,53.3,79,63,39,29.97,29.81,7,2,11,0.00
2013-6-10,73.2,69.2,67.3,69.9,65.7,60.1,99,89,64,29.81,29.65,7,2,14,0.41
2013-6-11,83.8,73.7,64.0,65.7,63.7,61.3,96,73,49,29.82,29.70,7,1,10,0.00
2013-6-12,88.7,79.8,70.0,73.3,69.2,63.5,85,71,56,29.79,29.55,7,1,10,0.00
2013-6-13,82.0,71.3,65.7,72.3,61.8,52.3,99,75,46,29.76,29.39,12,2,14,0.44
2013-6-14,71.1,65.7,60.8,59.4,57.6,56.6,87,76,63,29.90,29.76,8,2,12,0.01
2013-6-15,79.3,74.1,58.1,65.3,59.5,54.6,95,62,44,30.01,29.83,6,1,60,0.01
2013-6-16,79.0,72.9,68.5,67.9,65.2,61.4,93,77,64,29.85,29.78,8,1,12,0.01
2013-6-17,85.5,75.8,67.6,70.5,65.7,57.2,96,74,39,29.85,29.73,4,1,8,0.00
2013-6-18,81.1,73.6,64.6,67.8,64.1,56.1,87,73,53,29.89,29.72,8,2,14,0.00
2013-6-19,77.5,68.0,57.6,56.3,50.2,40.3,92,57,28,30.03,29.89,6,2,9,0.00
2013-6-20,82.9,72.3,57.6,55.5,52.9,49.6,85,53,33,30.10,30.01,6,1,8,0.00
2013-6-21,86.9,77.2,63.1,61.8,57.6,51.3,78,53,31,30.11,29.98,6,1,14,0.00
2013-6-22,89.8,79.3,69.1,70.4,66.2,61.4,86,66,46,30.03,29.89,8,1,11,0.00
2013-6-23,89.4,78.2,68.9,69.8,66.7,63.6,90,71,44,30.01,29.91,8,1,11,0.00
2013-6-24,87.6,81.9,68.4,69.7,66.8,62.4,87,61,45,30.12,29.96,5,1,10,0.03
2013-6-25,90.9,81.4,71.1,72.8,69.6,67.2,91,69,48,30.04,29.82,5,1,8,0.00
2013-6-26,85.6,75.3,68.0,72.0,69.1,62.9,98,83,55,29.94,29.75,6,1,10,0.38
2013-6-27,85.5,75.3,68.0,73.0,69.2,67.3,99,83,57,29.79,29.63,6,1,9,0.01
2013-6-28,82.9,73.8,66.6,70.7,65.4,56.1,93,76,48,29.64,29.51,9,1,12,0.49
2013-6-29,80.8,68.3,62.2,66.0,62.7,59.7,97,84,51,29.68,29.53,11,1,18,0.74
2013-6-30,78.3,69.0,63.1,67.7,64.5,62.3,99,87,65,29.84,29.67,8,2,10,0.03
2013-7-1,80.6,71.1,66.6,70.6,65.6,61.9,95,83,61,29.92,29.81,10,2,14,0.11
2013-7-2,81.3,75.0,69.1,68.7,66.4,64.3,92,76,57,30.01,29.90,8,2,11,0.00
2013-7-3,83.7,77.0,71.4,70.9,68.2,64.9,93,76,56,30.11,30.00,7,1,11,0.00
2013-7-4,77.2,73.3,71.8,70.2,69.0,66.6,94,87,71,30.15,30.07,6,2,9,0.03
2013-7-5,77.5,71.8,67.5,70.5,68.9,67.1,99,91,74,30.14,30.06,4,1,8,0.10
2013-7-6,83.1,74.6,71.2,75.0,70.6,66.3,97,88,64,30.13,29.99,7,1,11,0.26
2013-7-7,80.8,72.4,64.6,68.2,66.0,60.1,96,82,59,30.11,29.98,7,1,10,0.33
2013-7-8,81.1,72.4,64.8,75.6,70.0,63.8,99,93,77,30.12,30.00,7,1,11,0.72
2013-7-9,88.2,76.4,72.3,76.1,72.9,67.8,98,90,64,30.04,29.95,8,1,14,0.21
2013-7-10,90.1,76.2,67.8,77.2,71.9,63.6,99,88,63,29.98,29.76,13,1,19,0.01
2013-7-11,77.9,72.0,67.6,67.2,62.0,53.1,96,73,49,30.01,29.92,9,2,13,0.00
2013-7-12,79.9,70.9,60.3,62.8,58.6,55.7,91,67,46,30.09,30.00,9,2,14,0.00
2013-7-13,84.4,75.9,65.1,68.3,64.4,60.4,89,69,52,30.16,30.07,6,1,10,0.00
2013-7-14,88.7,81.1,72.1,72.1,69.5,66.9,86,69,54,30.22,30.14,8,2,10,0.00
2013-7-15,90.1,83.0,75.9,72.4,70.6,67.4,81,67,49,30.29,30.20,4,1,6,0.00
2013-7-16,92.3,83.3,73.9,75.2,71.9,67.8,93,71,48,30.31,30.20,5,0,8,0.00
2013-7-17,91.8,84.4,75.7,76.2,72.5,69.0,94,69,50,30.29,30.13,5,1,9,0.00
2013-7-18,91.4,84.0,77.2,75.5,72.6,68.6,84,70,49,30.17,29.98,4,0,8,0.00
2013-7-19,124.2,81.2,74.3,76.5,72.6,61.0,90,76,14,30.02,29.84,5,1,9,0.13
2013-7-20,79.3,75.7,68.7,73.4,71.4,66.7,95,87,76,29.91,29.81,6,1,11,0.61
2013-7-21,83.8,76.9,70.5,73.0,69.4,64.9,95,79,55,29.95,29.86,4,0,6,0.00
2013-7-22,77.4,72.8,69.4,71.4,69.3,67.9,97,89,80,29.91,29.74,4,0,7,0.98
2013-7-23,86.7,76.5,68.2,74.7,69.7,65.1,99,81,59,29.79,29.64,5,1,10,0.00
2013-7-24,73.0,69.3,62.6,66.3,58.3,52.0,87,69,51,30.00,29.77,9,3,12,0.00
2013-7-25,77.5,67.6,55.6,57.0,52.7,48.8,89,61,39,30.07,30.00,8,2,11,0.00
2013-7-26,80.2,70.8,58.5,61.1,57.1,50.5,90,64,36,30.08,29.94,5,1,12,0.00
2013-7-27,75.2,68.5,64.2,68.8,63.7,58.9,98,85,67,29.94,29.79,6,1,10,0.17
2013-7-28,71.6,64.3,56.1,59.2,54.0,49.1,96,71,49,30.03,29.87,5,1,9,0.00
2013-7-29,74.7,67.2,60.3,56.5,54.3,52.1,80,64,49,30.18,30.02,6,1,9,0.00
2013-7-30,79.3,70.0,59.9,60.7,58.3,55.8,93,68,46,30.22,30.11,4,0,5,0.00
2013-7-31,74.5,70.8,66.4,67.3,64.1,60.1,95,80,68,30.12,29.92,5,1,8,0.02
2013-8-1,80.8,72.6,68.4,68.8,64.6,57.8,98,78,48,29.94,29.87,7,1,8,0.01
2013-8-2,78.6,71.1,60.8,65.0,60.8,55.7,91,71,48,30.00,29.88,4,1,8,0.00
2013-8-3,80.4,72.3,66.6,69.7,64.1,59.1,98,78,50,30.00,29.93,5,1,7,0.18
2013-8-4,75.0,68.8,61.7,62.8,57.1,52.3,90,68,46,30.11,29.99,8,2,13,0.00
2013-8-5,76.8,67.7,56.5,58.3,55.9,54.2,93,68,48,30.13,29.97,4,1,6,0.00
2013-8-6,81.5,74.1,66.6,63.6,58.9,56.4,73,60,45,29.99,29.90,8,2,10,0.00
2013-8-7,85.1,77.2,69.8,73.9,68.8,62.6,88,76,63,29.93,29.83,8,1,11,0.00
2013-8-8,84.2,75.2,70.5,74.4,72.1,67.9,98,91,68,29.95,29.85,7,1,10,0.79
2013-8-9,79.2,71.9,66.4,70.8,67.1,60.4,99,86,55,30.02,29.88,5,0,8,0.13
2013-8-10,83.1,74.1,67.5,67.4,65.1,61.5,95,75,50,30.08,30.00,4,0,6,0.00
2013-8-11,83.7,74.4,65.7,70.7,66.2,62.7,95,77,57,30.09,29.98,4,1,7,0.00
2013-8-12,84.7,75.2,64.9,69.5,65.3,63.1,96,73,51,30.07,29.85,5,1,8,0.00
2013-8-13,76.1,69.4,59.4,67.5,60.7,49.7,95,75,53,31.30,29.81,8,2,13,0.00
2013-8-14,67.5,59.9,52.0,52.6,50.3,46.1,88,72,54,30.17,30.03,7,1,9,0.00
2013-8-15,73.6,63.4,51.3,55.6,51.2,46.8,96,68,41,30.20,30.06,8,1,111,0.00
2013-8-16,75.6,67.4,56.8,56.1,53.3,51.1,86,62,44,30.15,30.09,6,2,9,0.00
2013-8-17,81.0,71.0,62.1,61.1,56.6,54.4,79,62,42,30.19,30.10,6,2,9,0.00
2013-8-18,78.8,69.5,62.4,65.8,61.6,56.8,91,77,58,30.19,30.09,6,1,12,0.00
2013-8-19,81.7,73.0,65.3,67.3,62.0,55.0,96,72,41,30.14,30.03,4,1,7,0.00
2013-8-20,84.6,74.5,63.3,68.7,62.4,59.9,95,69,45,30.16,30.07,4,1,7,0.00
2013-8-21,86.0,74.5,66.2,70.4,64.7,58.8,89,73,52,30.16,30.03,5,1,9,0.00
2013-8-22,84.9,74.4,65.7,70.7,67.1,64.0,96,79,57,30.11,29.97,6,1,11,0.00
2013-8-23,83.5,74.8,68.9,68.5,64.5,56.4,97,73,46,30.15,30.01,7,2,13,0.03
2013-8-24,82.9,72.7,60.3,60.5,57.0,53.9,83,60,42,30.27,30.14,5,1,8,0.00
2013-8-25,85.3,74.7,62.6,64.3,58.7,54.2,82,60,36,30.34,30.18,6,1,10,0.00
2013-8-26,87.4,76.8,64.0,69.6,64.3,59.3,89,67,47,30.24,30.02,6,1,8,0.00
2013-8-27,85.6,78.0,71.1,74.4,71.0,67.2,90,80,64,30.04,29.89,6,1,8,0.00
2013-8-28,86.2,80.2,74.3,75.2,72.5,70.3,90,78,64,30.02,29.78,5,2,9,0.00
2013-8-29,85.1,76.5,70.5,71.3,69.2,65.4,96,80,53,30.03,29.95,5,1,7,0.00
2013-8-30,88.3,78.0,67.5,71.0,68.0,65.0,97,74,47,29.99,29.80,4,1,8,0.00
2013-8-31,87.3,77.1,68.7,74.0,70.6,67.2,97,81,59,29.83,29.74,8,1,11,0.33
2013-9-1,84.6,76.2,68.4,71.0,69.3,67.2,98,81,59,29.82,29.68,8,1,10,0.01
2013-9-2,84.4,75.6,69.3,72.4,68.2,58.6,96,79,63,29.87,29.75,6,1,10,0.00
2013-9-3,69.1,62.3,57.0,58.5,54.4,50.3,92,76,64,30.05,29.87,5,1,9,0.00
2013-9-4,81.5,67.2,53.1,60.1,55.8,52.4,98,71,40,30.13,30.02,4,0,6,0.00
2013-9-5,79.0,68.6,60.8,64.1,55.7,40.5,85,66,33,30.21,30.08,7,2,11,0.00
2013-9-6,76.8,64.9,52.0,52.8,46.9,37.3,91,57,25,30.27,30.09,4,1,7,0.00
2013-9-7,84.4,70.3,55.4,65.2,56.9,48.3,87,64,46,30.11,29.89,5,1,8,0.00
2013-9-8,81.0,74.6,68.5,69.0,65.9,62.8,84,75,64,30.02,29.91,7,2,11,0.00
2013-9-9,88.9,76.6,64.6,70.1,65.3,60.6,88,70,48,30.03,29.91,8,1,11,0.00
2013-9-10,95.0,84.2,75.6,74.3,71.4,69.1,84,67,47,30.08,29.99,7,1,10,0.00
2013-9-11,89.2,78.8,71.2,73.7,71.7,62.7,94,80,57,30.12,29.96,14,1,21,0.80
2013-9-12,77.0,71.4,62.1,72.0,67.5,58.5,98,88,65,29.98,29.81,10,1,12,0.28
2013-9-13,63.5,58.5,52.5,59.3,50.4,46.4,94,75,57,30.09,29.89,7,2,9,0.00
2013-9-14,67.5,56.5,45.3,48.2,45.2,41.0,93,68,41,30.17,30.07,7,1,9,0.00
2013-9-15,73.8,61.7,48.7,56.4,49.5,45.5,94,67,41,30.16,29.98,5,1,8,0.00
2013-9-16,69.8,62.0,55.9,58.7,54.5,49.8,99,78,49,30.31,30.08,7,2,11,0.02
2013-9-17,72.3,61.1,49.8,52.6,50.2,48.0,96,70,43,30.35,30.18,5,1,7,0.00
2013-9-18,76.3,65.7,58.6,64.2,57.2,51.0,91,75,57,30.19,30.01,6,2,9,0.00
2013-9-19,72.3,68.6,66.4,68.2,66.2,63.8,97,92,84,30.08,29.96,6,2,8,0.00
2013-9-20,86.7,74.8,67.3,71.3,67.7,65.3,99,82,51,29.99,29.75,8,1,10,0.12
2013-9-21,71.2,65.9,57.4,68.5,59.8,48.3,99,83,55,29.86,29.66,6,1,12,0.80
2013-9-22,63.3,56.6,50.2,49.4,46.0,42.4,94,69,48,30.04,29.85,6,2,8,0.00
2013-9-23,64.2,55.6,47.5,49.4,45.6,43.1,94,71,48,30.12,30.03,6,1,8,0.00
2013-9-24,68.4,56.4,44.8,49.8,46.6,43.2,96,72,45,30.13,29.91,4,1,8,0.00
2013-9-25,70.2,60.3,51.1,53.5,50.4,47.7,89,72,47,29.95,29.85,6,1,8,0.00
2013-9-26,78.4,65.0,51.4,55.1,49.9,40.5,96,64,26,30.09,29.92,6,2,8,0.00
2013-9-27,76.6,63.8,50.2,55.7,51.0,47.0,91,65,42,30.18,30.08,5,1,8,0.00
2013-9-28,78.4,66.1,53.2,56.2,52.6,49.0,93,65,38,30.20,30.05,6,1,8,0.00
2013-9-29,74.8,67.3,59.0,61.7,59.1,55.4,89,76,58,30.07,29.96,4,1,8,0.01
2013-9-30,73.2,65.8,62.1,63.8,60.0,58.3,94,82,65,30.02,29.92,4,1,7,0.00
2013-10-1,78.8,67.5,58.1,65.1,60.0,57.4,99,79,52,30.07,29.97,4,1,6,0.00
2013-10-2,80.4,69.5,60.4,67.7,63.6,58.8,96,82,62,30.10,29.99,3,0,4,0.00
2013-10-3,79.2,71.3,67.8,70.7,67.4,64.5,96,88,67,30.07,29.98,4,0,6,0.18
2013-10-4,80.4,70.6,65.1,70.0,67.5,64.4,99,90,65,30.08,30.00,5,1,8,0.43
2013-10-5,79.0,71.1,66.7,75.5,68.9,65.9,97,93,77,30.05,29.92,6,0,8,0.24
2013-10-6,77.4,67.9,52.5,69.4,65.0,51.0,99,91,66,29.93,29.66,8,2,15,0.95
2013-10-7,61.5,52.9,45.3,52.9,46.8,42.1,99,82,52,30.16,29.78,6,1,10,0.11
2013-10-8,67.8,55.1,43.3,51.7,45.9,42.8,99,75,43,30.28,30.16,7,1,10,0.00
2013-10-9,70.9,58.5,47.3,49.2,46.2,41.5,91,67,36,30.27,30.15,6,1,8,0.00
2013-10-10,74.7,59.7,48.0,52.8,46.6,41.8,86,65,37,30.20,30.05,4,1,8,0.00
2013-10-11,77.4,63.4,50.2,53.7,47.8,43.4,87,60,31,30.11,29.98,6,1,8,0.00
2013-10-12,73.4,64.0,55.6,60.0,56.5,49.8,95,77,61,30.12,30.03,6,1,9,0.16
2013-10-13,66.6,62.5,55.2,61.2,58.1,53.5,96,86,72,30.29,30.12,5,1,8,0.00
2013-10-14,70.7,58.8,48.6,53.5,50.0,46.3,97,75,46,30.34,30.18,6,1,9,0.00
2013-10-15,68.4,59.3,49.8,63.0,55.9,47.6,97,89,80,30.22,29.91,6,1,10,0.00
2013-10-16,66.4,62.8,52.2,64.5,59.5,45.3,99,90,71,29.95,29.84,5,1,8,0.08
2013-10-17,52.9,49.2,42.6,50.6,46.1,42.3,99,89,78,29.96,29.80,4,1,8,0.06
2013-10-18,64.8,52.6,42.4,49.3,44.1,41.3,99,76,45,30.00,29.89,4,1,9,0.00
2013-10-19,51.6,46.2,41.5,45.2,43.1,39.6,98,89,75,29.96,29.80,4,1,8,0.13
2013-10-20,62.6,49.4,38.5,43.1,40.1,37.2,96,73,43,30.00,29.93,7,1,12,0.00
2013-10-21,67.8,55.2,45.5,49.1,40.7,36.4,91,61,34,30.00,29.82,8,2,13,0.01
2013-10-22,51.6,44.1,34.7,45.7,31.5,24.2,92,63,35,30.03,29.87,6,1,9,0.03
2013-10-23,45.5,39.4,33.3,40.2,35.5,31.6,99,86,61,30.00,29.77,5,1,10,0.26
2013-10-24,44.4,38.1,31.6,35.8,30.9,25.9,94,76,49,30.21,29.98,6,1,10,0.00
2013-10-25,48.2,38.6,30.0,34.2,28.6,26.0,87,69,45,30.39,30.21,5,1,9,0.00
2013-10-26,46.9,41.2,32.9,37.2,29.3,24.6,77,63,47,30.26,29.88,6,2,13,0.00
2013-10-27,56.8,44.0,32.4,40.4,33.8,30.2,97,70,39,30.10,30.01,4,0,8,0.00
2013-10-28,60.4,46.9,34.9,40.2,34.5,30.5,95,66,34,30.30,30.09,4,1,8,0.00
2013-10-29,58.6,48.8,37.2,44.0,39.2,34.8,98,72,45,30.37,30.21,4,1,8,0.00
2013-10-30,64.8,57.0,50.2,59.4,49.4,38.4,99,76,59,30.22,29.99,5,2,10,0.00
2013-10-31,66.7,62.1,59.7,62.1,59.0,55.7,99,90,68,29.99,29.30,11,3,20,0.43
2013-11-1,63.7,56.0,50.5,62.8,48.6,40.6,98,77,56,30.24,29.27,11,2,20,0.03
2013-11-2,52.2,48.5,43.2,44.5,41.7,37.1,95,78,58,30.04,29.70,6,2,11,0.01
2013-11-3,54.9,44.6,41.4,41.8,37.6,31.4,99,78,44,30.41,30.04,6,1,8,0.00
2013-11-4,54.1,45.9,36.5,38.5,32.2,25.2,76,60,44,30.46,30.29,7,2,11,0.00
2013-11-5,59.7,54.2,50.0,42.2,39.3,37.5,65,57,47,30.41,30.23,7,2,9,0.00
2013-11-6,66.4,56.8,49.6,59.0,46.4,35.8,97,70,47,30.23,29.91,8,2,13,0.20
2013-11-7,49.6,43.2,37.2,48.5,33.9,25.7,98,72,45,30.19,29.98,9,2,14,0.05
2013-11-8,46.4,38.9,33.3,34.8,30.9,27.6,89,74,51,30.34,30.15,6,1,9,0.00
2013-11-9,60.8,48.6,37.0,37.9,32.2,27.7,77,55,35,30.25,29.93,10,3,15,0.00
2013-11-10,49.8,46.0,32.9,39.2,36.5,27.5,81,70,64,30.31,30.01,4,2,6,0.05
2013-11-11,51.1,41.1,30.7,38.7,31.5,26.7,94,71,40,30.30,30.02,9,2,14,0.05
2013-11-12,33.3,28.7,25.3,30.4,21.6,16.9,95,75,63,30.58,30.23,7,1,12,0.03
2013-11-13,39.2,30.0,21.6,21.1,17.5,11.9,81,61,37,30.61,30.37,6,2,11,0.03
2013-11-14,52.7,39.4,27.3,25.2,19.6,15.5,70,48,23,30.37,30.13,10,3,14,0.01
2013-11-15,52.3,45.8,38.7,39.9,25.8,20.8,78,46,32,30.17,30.07,9,2,13,0.00
2013-11-16,60.1,53.0,46.4,52.8,47.4,39.9,87,81,77,30.14,29.88,10,3,14,0.00
2013-11-17,61.3,59.1,51.4,59.5,54.7,40.1,99,86,57,29.90,29.44,17,6,24,0.36
2013-11-18,51.3,45.1,35.4,40.8,34.2,24.3,83,66,45,30.16,29.70,12,4,21,0.00
2013-11-19,42.4,36.5,32.4,25.9,24.0,21.5,69,60,48,30.38,30.15,7,2,11,0.00
2013-11-20,49.8,38.8,29.8,29.3,25.3,21.5,74,59,44,30.38,30.24,8,2,12,0.00
2013-11-21,55.0,47.7,39.0,45.2,36.2,26.5,89,65,51,30.35,30.18,8,2,10,0.10
2013-11-22,52.2,46.7,35.2,51.6,44.1,26.1,99,91,67,30.35,30.13,11,2,17,0.20
2013-11-23,35.8,29.5,19.9,26.8,19.5,3.2,87,67,44,30.52,30.27,11,4,18,0.00
2013-11-24,27.0,20.3,15.1,8.5,3.9,-4.0,62,49,29,30.65,30.52,12,2,16,0.00
2013-11-25,35.6,27.0,17.8,30.8,12.1,5.6,90,55,35,30.53,30.19,11,2,14,0.00
2013-11-26,34.0,31.7,30.0,31.5,29.3,27.3,93,91,86,30.20,29.88,2,0,3,0.03
2013-11-27,31.1,27.2,23.4,28.2,16.3,6.3,92,65,39,30.24,29.85,9,2,16,0.00
2013-11-28,30.4,26.4,22.3,19.0,15.8,11.3,74,64,49,30.42,30.23,11,2,12,0.00
2013-11-29,37.4,29.7,19.8,19.0,16.0,12.3,75,57,42,30.62,30.41,7,1,8,0.04
2013-11-30,43.7,34.7,27.5,29.1,23.1,16.0,69,62,52,30.56,30.16,8,2,10,0.01
2013-12-1,48.0,39.8,34.3,34.5,30.0,24.5,85,68,57,30.16,29.95,5,2,8,0.00
2013-12-2,43.2,38.6,34.3,36.0,33.1,29.7,91,80,72,29.95,29.81,7,2,8,0.03
2013-12-3,53.1,44.4,36.1,44.3,40.0,33.6,97,85,70,29.87,29.79,7,1,9,0.03
2013-12-4,62.1,55.0,47.3,52.8,47.8,43.0,85,77,69,29.89,29.72,10,3,19,0.00
2013-12-5,62.6,50.6,32.9,58.6,44.3,28.9,93,79,64,30.15,29.72,9,3,14,0.07
2013-12-6,33.1,29.1,25.5,28.9,25.5,21.9,89,86,80,30.37,30.10,0,0,0,0.00
2013-12-7,27.0,23.7,18.0,22.1,13.2,7.5,86,65,46,30.61,30.36,0,0,0,0.00
2013-12-8,30.7,24.8,18.1,29.2,17.2,7.9,94,73,62,30.57,29.99,10,2,12,0.01
2013-12-9,33.4,30.4,24.6,31.9,24.4,14.0,94,79,63,30.22,29.95,9,3,13,0.00
2013-12-10,26.8,22.1,18.0,15.8,10.5,4.4,80,61,44,30.33,30.10,9,3,14,0.00
2013-12-11,32.5,21.8,14.2,18.0,10.2,2.8,68,60,50,30.50,30.24,7,2,12,0.00
2013-12-12,19.2,15.5,9.1,2.8,-2.2,-9.6,64,45,27,30.56,30.31,8,2,10,0.00
2013-12-13,33.6,26.0,16.2,22.8,10.4,-0.5,71,51,43,30.32,30.18,7,2,10,0.00
2013-12-14,36.5,33.7,30.6,34.7,30.9,23.5,94,89,74,30.21,29.67,7,2,10,0.28
2013-12-15,32.0,24.8,21.7,30.6,16.7,8.4,95,72,54,30.10,29.76,0,0,0,0.00
2013-12-16,28.0,22.9,18.1,24.1,14.7,10.0,85,71,60,30.18,29.99,0,0,0,0.00
2013-12-17,32.4,28.0,25.9,29.2,21.5,18.2,90,76,67,30.11,29.94,0,0,0,0.00
2013-12-18,32.0,27.1,24.4,20.5,15.8,10.6,77,63,47,30.23,30.03,8,2,11,0.00
2013-12-19,48.6,41.0,31.5,35.2,25.9,14.7,63,55,47,30.05,29.93,7,2,11,0.01
2013-12-20,58.3,52.3,47.5,55.1,42.5,30.4,95,71,50,29.93,29.79,12,4,17,0.02
2013-12-21,67.1,59.8,56.8,62.0,57.7,54.2,98,93,77,29.79,29.42,16,4,26,0.66
2013-12-22,65.7,55.5,41.4,60.7,49.1,37.3,96,80,61,30.01,29.45,17,4,21,0.36
2013-12-23,41.2,33.2,26.8,37.3,22.8,12.8,87,66,54,30.35,29.99,8,3,13,0.00
2013-12-24,27.0,17.4,11.3,17.5,5.4,-0.8,76,59,48,30.59,30.32,8,2,12,0.00
2013-12-25,31.5,23.3,14.4,21.8,9.8,4.1,69,56,37,30.54,30.15,11,3,18,0.00
2013-12-26,37.6,32.7,30.0,24.0,17.6,7.3,73,55,31,30.34,30.13,11,3,17,0.00
2013-12-27,46.2,37.6,31.5,28.0,23.5,18.3,64,56,47,30.37,30.24,7,2,9,0.00
2013-12-28,53.1,41.7,33.6,32.0,27.2,23.1,71,57,44,30.24,30.00,7,3,9,0.00
2013-12-29,43.7,39.9,32.5,40.2,32.2,22.6,93,76,44,30.00,29.73,10,2,15,0.23
2013-12-30,32.5,26.5,23.5,24.9,15.6,-99.9,74,64,57,30.23,29.97,8,2,12,1.50
2013-12-31,27.0,24.0,20.8,14.5,11.7,9.0,68,59,50,30.35,30.11,11,3,15,0.00
2014-1-1,37.9,30.3,22.6,25.8,20.2,13.4,73,66,57,30.31,30.05,8,2,11,0.00
2014-1-2,28.0,21.5,9.0,21.5,14.4,-1.5,83,74,61,30.21,29.79,17,4,21,0.00